Weather History for KDBQ - January, 2013

Change the Weather History Date:

Wednesday, January 2, 2013

  Actual Average Record
Temperature  
Mean Temperature 13 °F 19 °F  
Max Temperature 23 °F 27 °F 57 °F (1897)
Min Temperature 3 °F 12 °F -22 °F (1879)
Degree Days  
Heating Degree Days 52 46  
Month to date heating degree days 110 92  
Since 1 July heating degree days 2790 2902  
Cooling Degree Days 0 0  
Month to date cooling degree days 0 0  
Year to date cooling degree days 0 0  
Moisture  
Dew Point 8 °F    
Average Humidity 80    
Maximum Humidity 86    
Minimum Humidity 73    
Precipitation  
Precipitation 0.01 in 0.04 in 0.88 in (1966)
Month to date precipitation 0.01 0.08  
Year to date precipitation 0.01 0.08  
Snow  
Snow 0.00 in 0.40 in - ()
Month to date snowfall 0.0 0.7  
Since 1 July snowfall 19.2 15.3  
Snow Depth 5.00 in    
Sea Level Pressure  
Sea Level Pressure 30.12 in    
Wind  
Wind Speed 9 mph (SSW)    
Max Wind Speed 16 mph    
Max Gust Speed 18 mph    
Visibility 9 miles    
Events Snow    
T = Trace of Precipitation, MM = Missing Value Source: NWS Daily Summary

Daily Weather History Graph

Daily Weather History Graph

Search for Another Location

Airport or City:

Trip Planner

Search our weather history database for the weather conditions in past years. The results will help you decide how hot, cold, wet, or windy it might be!

Date:

Astronomy

Jan. 02, 2013 Rise Set
Actual Time 7:32 AM CST 4:42 PM CST
Civil Twilight 7:00 AM CST 5:13 PM CST
Nautical Twilight 6:25 AM CST 5:49 PM CST
Astronomical Twilight 5:51 AM CST 6:23 PM CST
Moon 10:21 PM CST (1/2) 10:07 AM CST (1/2)
Length of Visible Light 10h 13m
Length of Day
9h 09m
Waning Gibbous, 75% of the Moon is Illuminated
Jan 2
Waning Gibbous
Jan 4
Last Quarter
Jan 11
New
Jan 18
First Quarter
Jan 26
Full

Hourly Weather History & Observations

Time (CST) Temp. Windchill Dew Point Humidity Pressure Visibility Wind Dir Wind Speed Gust Speed Precip Events Conditions
12:53 AM 10.0 °F -1.9 °F 3.0 °F 73% 30.20 in 10.0 mi SW 8.1 mph - N/A   Overcast
1:53 AM 10.9 °F 0.2 °F 3.0 °F 70% 30.20 in 10.0 mi SSW 6.9 mph - N/A   Overcast
2:44 AM 8.6 °F 0.1 °F 1.4 °F 73% 30.12 in 10.0 mi South 4.6 mph - N/A   Scattered Clouds
2:53 AM 7.0 °F -3.3 °F 1.0 °F 77% 30.19 in 10.0 mi South 5.8 mph - N/A   Partly Cloudy
3:53 AM 5.0 °F -10.0 °F -0.9 °F 76% 30.18 in 10.0 mi South 10.4 mph - N/A   Clear
4:26 AM 3.2 °F -7.8 °F -2.2 °F 78% 30.11 in 10.0 mi South 5.8 mph - N/A   Mostly Cloudy
4:53 AM 5.0 °F -5.6 °F -0.9 °F 76% 30.17 in 10.0 mi SSE 5.8 mph - N/A   Mostly Cloudy
5:53 AM 5.0 °F -6.9 °F -0.9 °F 76% 30.17 in 10.0 mi South 6.9 mph - N/A   Mostly Cloudy
6:23 AM 3.2 °F -11.3 °F -0.4 °F 85% 30.08 in 10.0 mi South 9.2 mph - N/A   Scattered Clouds
6:53 AM 3.9 °F -8.2 °F -0.9 °F 80% 30.17 in 10.0 mi SSW 6.9 mph - N/A   Clear
7:53 AM 5.0 °F -8.1 °F -0.0 °F 80% 30.15 in 10.0 mi South 8.1 mph - N/A   Clear
8:53 AM 6.8 °F -9.3 °F 1.4 °F 79% 30.06 in 10.0 mi South 12.7 mph - N/A   Clear
9:53 AM 10.0 °F -2.9 °F 3.9 °F 76% 30.14 in 10.0 mi South 9.2 mph - N/A   Clear
10:53 AM 12.0 °F -0.4 °F 6.1 °F 77% 30.14 in 10.0 mi South 9.2 mph - N/A   Clear
11:53 AM 15.1 °F 3.3 °F 8.1 °F 74% 30.11 in 10.0 mi South 9.2 mph - N/A   Clear
12:53 PM 17.1 °F 5.0 °F 10.0 °F 74% 30.07 in 9.0 mi South 10.4 mph - N/A   Clear
1:53 PM 19.0 °F 6.1 °F 12.0 °F 74% 30.07 in 10.0 mi SSW 12.7 mph - N/A   Clear
2:53 PM 19.0 °F 9.0 °F 12.0 °F 74% 30.08 in 9.0 mi SSW 8.1 mph - N/A   Partly Cloudy
3:53 PM 19.9 °F 8.6 °F 12.9 °F 74% 30.09 in 9.0 mi SSW 10.4 mph - N/A   Overcast
4:53 PM 19.9 °F 11.1 °F 15.1 °F 81% 30.09 in 9.0 mi SSW 6.9 mph - N/A   Overcast
5:53 PM 19.9 °F 12.1 °F 15.1 °F 81% 30.10 in 9.0 mi SSW 5.8 mph - N/A   Overcast
6:53 PM 21.0 °F 11.4 °F 15.1 °F 78% 30.12 in 9.0 mi WSW 8.1 mph - N/A   Overcast
7:41 PM 21.2 °F 11.7 °F 15.8 °F 80% 30.04 in 8.0 mi SW 8.1 mph - N/A   Overcast
7:53 PM 21.0 °F 10.6 °F 17.1 °F 85% 30.11 in 8.0 mi WSW 9.2 mph - N/A   Overcast
8:53 PM 21.9 °F 11.7 °F 17.1 °F 82% 30.11 in 3.0 mi West 9.2 mph - 0.01 in Snow Light Snow
9:53 PM 21.9 °F 11.0 °F 18.0 °F 85% 30.11 in 7.0 mi West 10.4 mph - 0.00 in   Overcast
10:53 PM 21.9 °F 11.7 °F 18.0 °F 85% 30.12 in 6.0 mi WSW 9.2 mph - N/A   Overcast
11:53 PM 23.0 °F 11.1 °F 19.9 °F 88% 30.11 in 5.0 mi WSW 12.7 mph - N/A   Overcast